Location: *
(43.9905°S, 176.4941°W)
Time: 00:07:43
(UTC+00:00)

Nadezhda 1 Rocket - Pass Details

Date: 08 December 2019
Orbit: 941 x 1006 km, 83.0° (Epoch: 18 January)

Event Time Altitude Azimuth Distance (km) Brightness Sun altitude
Exits shadow 09:58:09 23° 342° (NNW) 1,912 5.1 -19.5°
Maximum altitude 10:02:09 72° 261° (W) 1,011 4.1 -19.8°
Drops below altitude 10° 10:08:25 10° 176° (S) 2,737 7.3 -20.2°
Sets 10:10:59 0° 173° (S) 3,700 8.1 -20.4°
